GFSNGP_700_spd_000.txt.gz
Wind_Speed
47 45 37 25 35 33 33 31 28 32 37 34 23 25 20 24 21 24 25 25 21 15 19 23 20 18 14 17 23 23 24 27 31 36 45 44 47 28 25 25 27 24 20 15
45 45 47 37 25 28 30 25 24 33 34 32 29 23 21 25 23 23 21 17 22 20 23 18 17 16 15 21 21 20 23 23 24 34 45 48 43 26 24 29 28 24 19 16
35 43 43 39 46 44 37 33 34 33 36 35 30 22 20 20 24 24 18 19 23 22 21 18 19 21 24 26 28 29 27 26 29 29 33 45 38 26 27 34 28 25 21 17
38 24 7 37 45 39 36 34 29 31 35 38 28 22 17 22 24 23 23 23 24 23 16 17 19 18 18 19 23 27 30 31 31 34 32 39 37 32 28 27 27 23 22 20
15 24 13 24 26 32 35 29 29 25 27 22 18 15 17 21 27 34 29 30 24 20 19 16 14 13 10 8 13 17 21 24 28 30 30 35 33 16 22 28 25 22 22 25
14 8 8 19 27 27 28 22 21 21 18 21 24 19 14 22 29 38 39 33 29 23 18 15 10 8 4 11 15 17 19 24 24 28 28 27 22 20 26 29 28 28 30 32
12 7 9 21 29 32 21 14 19 18 21 15 17 19 16 16 14 23 31 30 24 22 16 9 6 6 10 12 28 33 29 24 26 30 26 25 23 26 28 32 28 30 32 31
1 2 3 19 27 25 26 29 10 9 15 21 15 14 10 21 27 30 28 24 23 15 9 11 13 19 27 31 37 29 27 26 26 28 26 26 24 28 27 26 29 37 29 40
1 6 8 11 20 34 28 26 24 16 19 22 24 28 31 31 28 25 23 24 21 18 16 27 30 28 33 31 29 30 30 28 27 22 21 23 26 27 32 31 32 34 27 29
9 22 33 36 36 31 28 26 28 26 21 26 24 22 21 22 22 22 21 19 23 35 34 30 31 33 35 35 31 29 29 24 25 18 24 26 28 32 33 29 34 32 20 26
14 21 23 23 22 23 22 19 12 7 14 18 17 16 9 12 16 22 26 27 28 33 37 39 35 33 35 31 22 23 23 23 21 20 28 25 28 33 33 26 27 18 19 25
34 28 25 15 13 13 12 6 9 15 15 16 17 17 22 18 17 22 26 25 19 21 22 27 32 28 22 19 18 17 17 9 11 12 18 16 22 26 22 23 17 19 19 22
27 33 28 35 34 21 13 5 1 7 7 9 11 13 16 16 17 20 19 21 24 27 26 23 18 14 10 8 8 7 9 3 2 6 9 12 17 16 16 17 19 20 23 24
34 35 34 29 23 16 10 13 8 14 12 10 14 15 18 19 23 27 29 28 22 19 18 15 14 15 8 6 7 9 6 3 2 5 10 14 17 18 20 22 22 23 25 27
27 21 18 16 14 14 11 9 9 11 11 14 16 18 23 26 28 28 28 26 23 20 19 19 20 16 13 14 12 9 6 11 10 14 16 18 20 19 20 21 21 26 27 27
17 14 13 9 10 9 9 11 14 16 18 21 24 27 29 31 29 29 28 28 27 24 21 18 19 19 16 14 9 10 12 12 17 16 14 18 21 22 24 24 25 26 27 24
11 9 6 5 7 11 14 18 21 23 22 22 24 25 27 28 29 28 26 25 23 19 17 18 17 17 17 17 14 14 13 17 13 9 11 17 25 31 29 26 24 26 23 24
5 6 8 10 12 14 16 18 20 20 19 18 18 20 22 25 27 26 23 22 20 15 13 19 21 21 20 17 17 16 17 16 15 16 19 23 24 23 23 22 21 25 24 26
8 10 11 13 15 18 20 21 20 19 19 20 20 21 23 23 24 24 20 16 12 10 14 17 19 21 20 19 19 20 20 20 21 22 26 25 24 24 23 23 23 24 24 22
11 13 16 18 18 18 18 17 17 17 19 20 20 19 15 15 15 15 15 14 11 14 15 16 19 20 19 20 20 20 20 21 23 24 25 26 23 22 21 20 23 23 19 19
10 11 11 11 12 12 12 12 13 13 12 11 9 8 9 10 9 10 8 7 9 10 11 12 13 12 13 16 17 18 20 22 22 23 25 25 25 23 20 18 18 18 17 20
7 8 9 11 12 12 12 11 9 7 4 4 2 0 2 4 7 7 6 5 6 6 8 9 12 15 16 17 19 20 21 21 22 21 21 20 20 18 17 17 18 18 19 19
6 7 7 8 10 11 10 8 6 4 3 2 1 1 1 1 2 4 6 7 9 11 11 13 14 17 18 18 18 18 18 19 20 21 19 19 19 18 17 18 18 18 18 17
10 5 5 8 11 9 8 5 5 4 3 3 4 5 5 5 6 6 8 10 11 12 13 15 14 13 14 15 17 18 20 21 20 19 20 19 18 17 18 18 18 19 19 18
5 3 2 7 9 6 4 4 4 5 8 9 9 10 10 11 11 11 11 11 11 11 12 14 16 18 21 22 23 23 22 19 17 16 15 16 18 19 21 23 23 22 19 18
10 8 8 9 12 9 6 9 9 8 7 6 7 9 9 9 9 8 9 11 13 14 15 17 19 22 23 23 23 20 20 19 19 19 18 18 18 18 20 22 22 20 19 18
10 10 11 12 13 11 13 10 11 12 12 11 10 12 12 12 11 11 12 12 12 12 12 12 13 14 14 14 14 14 15 16 16 17 18 17 15 14 15 17 18 19 18 17

GFSNGP_700_spd_003.txt.gz
Wind_Speed
36 34 34 35 30 29 31 48 34 36 35 33 26 25 26 26 27 19 25 23 28 17 16 23 26 27 24 24 20 18 19 19 20 30 38 41 45 50 57 53 40 36 38 29
22 33 34 37 37 30 31 33 36 31 30 27 26 26 31 25 28 25 23 21 27 21 17 22 24 26 25 23 22 21 20 19 22 26 28 32 41 49 46 47 26 27 37 31
13 18 24 34 37 33 33 32 36 35 30 23 32 35 26 26 25 28 24 25 26 23 22 25 22 24 23 24 28 28 28 29 30 31 29 27 30 31 37 33 33 20 34 28
12 8 9 26 30 37 39 41 34 32 29 30 33 32 29 28 24 25 25 28 29 23 28 23 25 25 28 30 30 30 29 29 30 32 32 31 32 31 29 25 32 20 30 27
9 10 15 15 27 26 36 38 40 36 27 33 35 31 25 31 25 26 24 30 31 27 27 27 26 27 26 25 21 15 11 12 16 21 24 24 28 28 23 20 21 21 30 32
11 12 8 12 22 26 29 30 34 31 29 29 25 26 27 30 28 26 27 29 34 25 29 29 29 28 25 20 15 10 9 17 24 24 22 25 28 29 24 22 22 29 35 32
17 16 16 21 22 23 21 21 30 30 27 28 29 29 30 24 20 16 24 30 33 28 32 30 27 22 24 20 15 18 25 26 26 26 27 27 27 27 21 22 23 29 31 31
11 8 11 10 15 18 22 19 27 28 26 25 23 23 24 18 13 13 13 24 26 29 30 26 23 24 22 16 23 27 34 39 30 26 23 23 24 19 16 17 23 27 29 33
10 17 23 15 15 19 22 24 23 26 22 18 21 25 23 23 25 28 32 30 29 21 18 15 11 16 21 28 32 38 35 33 33 27 22 18 10 13 16 20 23 29 33 31
25 6 21 36 41 36 33 30 31 31 32 30 28 32 32 31 28 26 26 27 24 17 16 20 26 31 33 32 40 34 28 25 20 20 19 18 14 8 9 15 25 32 24 19
23 21 24 25 28 31 31 29 26 24 22 21 24 26 23 24 23 21 19 18 21 22 25 30 33 31 29 30 25 28 19 16 16 16 13 17 12 8 9 11 14 22 22 22
32 31 23 23 18 17 19 15 11 4 6 8 13 19 16 15 17 19 20 22 25 29 25 24 26 23 25 25 19 15 9 7 6 8 10 11 9 11 11 13 19 23 26 28
25 31 29 26 19 13 9 9 4 6 3 8 17 21 20 22 23 26 25 22 22 21 20 21 20 20 17 15 13 11 11 11 11 12 14 13 13 14 15 15 14 15 19 20
27 36 33 30 26 21 19 14 11 9 14 14 13 14 15 18 20 20 20 20 19 20 19 15 15 13 13 11 13 14 12 12 15 17 16 13 13 15 17 17 20 22 21 22
23 27 28 26 25 21 14 11 10 11 11 10 11 11 14 15 17 19 20 21 20 18 16 15 15 18 18 16 16 14 14 15 19 18 14 14 16 18 18 18 19 19 21 24
32 32 25 13 13 11 6 5 7 9 9 12 15 16 19 22 22 21 24 23 20 20 21 19 18 20 18 16 17 17 17 18 17 16 16 17 17 16 18 19 21 27 27 26
20 11 14 8 5 5 9 12 13 15 17 18 18 19 20 20 20 20 21 21 21 20 18 17 19 20 18 17 20 18 21 19 18 18 16 14 16 17 21 25 29 27 27 25
11 8 6 4 4 6 9 11 14 16 17 17 18 19 19 19 18 17 18 19 19 17 16 14 17 19 19 21 23 19 17 18 19 19 17 18 19 20 23 24 25 27 25 23
3 2 5 8 11 13 15 17 18 18 19 19 20 21 22 21 21 21 20 17 15 14 13 15 17 21 21 24 20 17 16 18 20 19 19 21 21 23 23 23 22 22 23 24
6 8 10 13 15 17 17 17 17 17 17 17 19 19 18 18 16 15 13 10 9 11 13 16 19 21 23 22 19 19 18 19 20 20 20 22 23 24 22 21 21 22 23 25
6 10 12 12 11 10 10 9 8 7 8 10 11 12 11 10 9 8 6 5 6 9 13 15 16 16 16 16 16 16 18 20 21 23 23 23 23 24 23 23 22 23 23 22
4 5 6 7 7 7 7 6 5 5 5 6 6 4 5 5 5 4 4 5 5 6 7 9 10 12 14 16 18 19 20 22 23 23 22 23 21 20 19 20 21 21 21 20
9 10 10 11 11 10 9 6 3 2 3 2 2 3 4 5 5 5 6 6 7 8 10 12 13 15 16 16 17 17 17 18 18 19 20 20 19 19 20 20 21 21 21 20
15 8 7 11 13 11 9 8 4 4 8 6 5 6 7 9 9 9 9 10 10 11 12 13 14 13 13 12 13 16 19 20 21 20 19 19 20 21 21 21 21 22 21 20
12 13 11 12 13 12 8 9 10 9 9 9 10 9 8 7 6 8 10 11 12 13 14 15 14 14 15 17 20 21 20 20 19 17 18 18 19 19 20 21 21 21 21 21
13 10 9 12 12 10 9 7 7 7 6 6 6 8 9 9 9 9 8 8 9 11 13 15 16 17 19 19 19 17 16 15 16 16 17 18 19 19 19 19 19 19 19 20
8 10 9 9 11 9 9 8 8 8 8 7 6 8 9 10 10 10 11 12 13 13 12 13 13 13 14 14 14 13 14 15 15 13 12 13 14 14 15 16 16 16 16 18

GFSNGP_700_spd_006.txt.gz
Wind_Speed
30 29 27 35 40 40 49 54 50 42 47 44 38 34 27 25 23 26 24 23 22 32 32 28 26 30 32 32 31 27 28 26 25 29 29 31 34 35 42 51 54 56 53 39
30 31 33 35 36 40 39 42 50 52 49 38 43 38 36 31 30 30 29 27 23 35 30 23 21 23 26 26 27 27 29 29 28 27 25 27 28 33 39 41 41 40 31 34
25 22 27 35 40 38 44 40 39 41 46 50 41 33 35 35 27 30 27 25 25 32 28 25 23 25 28 29 30 31 31 30 27 27 27 29 30 30 30 30 33 33 31 34
22 7 14 26 28 34 36 43 37 32 30 33 35 31 34 32 34 35 30 30 28 31 33 27 29 30 31 35 34 33 33 31 29 29 24 24 24 23 24 28 30 27 26 29
22 23 13 14 11 25 32 38 40 33 31 27 25 31 30 32 31 31 32 31 31 32 32 34 33 32 32 33 33 34 34 33 28 19 13 13 17 21 20 26 30 27 28 26
17 20 17 13 12 23 28 28 38 39 36 34 28 29 33 36 35 29 35 32 28 31 37 35 31 33 32 34 34 36 35 32 24 16 15 18 23 25 25 26 27 23 23 26
24 18 20 19 19 21 11 19 30 35 37 32 31 28 30 34 34 32 35 34 32 30 32 34 33 33 34 34 33 32 30 27 23 22 26 31 33 38 24 23 21 19 21 25
17 19 20 20 19 16 16 23 20 31 33 36 36 34 30 33 33 34 37 31 33 34 29 31 34 32 32 31 28 25 23 21 25 29 30 31 29 30 25 17 15 17 19 23
23 24 23 20 20 20 16 14 16 23 28 27 33 32 31 32 32 30 30 29 28 28 31 34 34 33 30 26 22 22 25 31 32 30 24 23 24 23 22 16 16 19 21 24
20 24 24 19 20 19 12 13 15 20 23 24 32 34 36 39 36 33 33 33 33 33 33 33 33 33 29 23 24 28 31 29 25 23 20 20 21 20 17 15 18 18 19 26
16 11 9 15 26 28 28 27 26 28 29 37 39 36 37 38 35 34 33 29 25 25 25 25 28 26 25 27 30 30 28 27 24 24 20 19 20 20 19 19 16 16 16 20
13 20 25 33 31 24 24 26 25 23 22 25 25 30 30 23 26 22 24 21 17 19 21 23 24 26 29 29 25 26 25 22 23 22 18 18 17 16 17 19 19 17 15 18
26 32 38 39 24 24 17 17 15 12 15 14 13 16 20 23 26 23 17 16 16 19 22 24 23 23 22 21 21 22 21 20 18 16 15 16 17 18 20 20 18 18 16 13
35 38 35 34 26 24 16 6 5 4 4 5 9 13 16 14 16 18 25 31 27 18 15 15 15 16 17 16 16 15 17 17 17 16 18 20 20 19 18 18 19 18 16 16
25 34 29 31 33 12 8 6 5 9 7 11 6 8 11 12 13 15 16 15 14 16 17 17 16 15 15 17 16 16 17 18 16 17 20 21 21 19 18 19 18 17 15 17
18 23 28 22 21 21 23 17 4 3 4 7 14 17 12 10 12 16 16 16 16 16 15 16 18 19 20 20 20 19 20 20 19 19 22 21 20 19 19 18 16 17 19 24
21 20 22 20 13 13 21 15 6 7 7 8 11 12 12 14 15 13 14 15 15 15 16 17 18 19 19 19 19 18 21 21 21 22 22 23 18 18 17 15 18 22 24 27
21 21 19 17 8 4 4 4 8 10 12 12 11 11 12 12 13 14 14 14 14 14 13 14 16 18 18 19 20 20 23 22 25 24 23 22 20 18 20 20 22 24 22 26
20 15 8 6 3 4 6 9 11 13 14 14 14 13 13 14 14 14 15 15 14 12 12 13 15 16 19 19 20 21 24 22 23 23 23 24 21 22 23 25 23 24 22 26
10 9 6 5 5 6 7 9 10 10 10 10 11 11 11 11 10 9 7 6 8 9 11 12 13 15 17 19 19 25 25 20 23 22 21 22 23 23 23 25 23 22 23 23
10 9 6 4 4 4 3 3 4 5 5 5 6 6 7 6 5 4 2 3 5 7 9 11 11 12 16 17 17 20 22 22 20 21 22 22 24 23 24 20 20 21 19 25
7 8 8 8 7 5 4 4 3 3 4 5 4 3 2 1 0 2 3 3 3 5 7 9 11 12 13 13 15 16 18 19 21 22 24 25 25 25 24 23 23 22 22 21
9 8 10 12 13 11 8 6 5 4 4 3 3 2 2 2 2 0 4 4 5 7 9 11 10 12 13 14 16 18 20 20 21 22 22 22 22 22 22 22 23 23 23 23
13 11 12 14 14 13 12 10 7 6 7 8 6 6 5 3 5 6 6 7 7 8 9 10 11 13 14 15 15 16 17 18 19 20 22 22 22 22 22 23 23 22 22 24
12 10 9 12 12 13 13 11 12 10 8 8 8 8 5 5 4 5 4 6 8 8 9 11 13 14 13 13 12 13 13 14 13 13 15 18 19 19 19 20 19 19 21 22
7 8 8 7 7 9 8 8 6 8 7 6 5 6 6 6 7 6 6 7 6 6 7 9 12 11 11 11 11 13 14 13 16 15 15 13 15 17 17 20 21 23 23 23
4 8 9 9 9 11 13 13 12 12 13 11 10 10 10 10 10 9 9 8 9 10 11 12 12 16 14 12 13 15 15 15 16 15 15 16 17 17 17 18 19 20 21 20

GFSNGP_700_spd_009.txt.gz
Wind_Speed
36 33 24 32 36 39 48 50 48 46 46 44 43 35 31 30 26 22 21 25 22 18 21 24 36 29 26 29 32 33 31 30 28 27 29 31 31 29 31 34 35 38 42 41
32 31 31 32 30 40 39 46 52 49 50 43 41 37 30 30 27 24 24 23 30 28 23 26 31 30 28 30 34 35 35 31 29 30 31 30 30 30 31 32 35 36 39 38
32 30 28 34 38 36 36 41 42 48 52 46 44 43 42 43 38 36 32 28 31 30 29 27 35 33 33 35 35 33 33 30 31 31 30 31 31 31 30 30 28 26 27 30
33 25 21 33 31 36 39 39 39 42 38 39 47 50 44 33 35 36 39 33 31 31 31 28 36 33 31 31 32 32 32 32 32 34 33 29 28 27 25 18 16 19 25 32
32 30 19 26 14 13 10 30 38 37 37 38 35 38 47 53 37 32 30 30 32 34 30 29 37 33 33 31 30 34 36 35 34 33 29 26 21 16 13 15 20 27 30 38
26 32 24 22 7 10 12 21 22 24 29 37 32 37 40 40 40 37 39 29 32 32 32 33 41 34 35 34 32 33 35 35 31 28 25 24 19 14 18 21 24 30 30 31
35 26 28 15 10 17 15 18 19 26 32 29 37 38 23 28 33 38 34 35 35 34 34 31 44 39 36 35 34 35 35 35 32 28 24 21 22 23 24 24 27 26 27 25
37 36 31 14 10 18 17 15 18 25 31 31 33 33 33 29 35 34 39 39 36 35 33 30 38 36 33 35 36 36 35 31 30 25 23 25 26 28 28 28 26 24 22 19
34 41 28 22 21 16 24 31 25 27 27 19 21 27 32 37 42 37 36 36 33 35 37 32 32 33 35 36 35 33 32 29 28 24 25 26 27 29 28 25 23 21 21 22
18 13 17 18 9 22 15 4 6 11 8 11 15 16 17 19 18 24 26 32 34 34 36 37 39 37 34 31 30 28 26 25 23 24 26 28 27 25 22 22 22 21 23 25
23 16 14 15 22 26 17 8 10 14 18 14 19 21 24 26 27 27 30 31 32 35 36 36 34 31 30 27 25 24 23 22 22 21 22 22 21 19 20 21 21 24 24 22
30 18 12 14 19 16 26 21 21 21 30 29 33 31 29 25 25 24 31 36 36 34 31 28 24 22 20 19 19 20 19 19 20 19 19 18 18 18 19 19 19 20 22 21
15 17 16 25 33 33 28 18 19 21 15 17 17 21 23 26 29 29 26 21 20 16 15 17 18 19 22 23 20 17 16 18 17 18 18 15 15 16 19 19 20 21 19 18
18 18 26 28 27 34 36 26 16 13 15 16 14 14 16 21 23 24 24 24 22 24 25 25 28 26 24 18 15 16 17 16 15 13 15 16 15 17 21 22 23 22 21 19
23 30 31 27 31 29 22 24 11 8 9 12 12 9 10 11 13 14 15 18 23 24 23 22 25 19 23 17 15 14 13 14 18 16 18 19 19 19 19 13 12 21 17 16
22 27 30 28 30 33 16 8 11 8 9 11 10 10 6 3 3 3 5 8 12 14 14 16 20 19 18 17 16 16 17 17 19 20 23 20 19 20 19 17 14 20 18 16
19 22 19 15 30 20 22 25 17 9 6 5 3 8 4 17 11 9 13 15 14 15 18 20 20 17 18 17 16 18 19 20 21 22 21 20 19 18 15 11 11 16 19 22
14 16 13 10 7 17 12 7 7 5 4 1 3 4 8 11 12 14 13 12 16 21 18 16 15 16 15 15 15 13 14 14 16 15 13 16 14 11 10 10 12 13 19 22
27 22 19 12 4 8 8 6 3 2 3 2 5 8 8 9 10 11 12 13 13 14 14 14 14 14 15 16 15 13 16 11 16 16 17 18 17 15 13 14 14 21 24 23
21 21 14 10 7 4 4 3 1 1 2 2 3 3 4 6 7 5 8 8 8 10 12 13 13 14 15 16 16 14 13 12 14 16 17 14 12 17 18 22 21 20 25 29
13 13 11 8 7 7 7 7 7 6 4 5 4 5 3 3 5 5 3 4 7 8 9 11 10 12 14 16 15 16 21 22 23 23 15 16 15 17 18 14 21 22 22 21
11 11 11 8 7 8 8 8 10 7 7 6 4 8 7 9 4 4 6 2 4 6 7 6 10 12 11 12 9 12 14 16 14 15 17 19 19 18 17 18 17 16 14 17
12 10 10 11 10 7 8 6 4 3 2 1 1 1 5 4 2 1 1 4 2 5 6 7 10 8 8 8 9 10 12 17 14 17 19 20 20 20 19 17 14 15 16 17
9 11 14 12 12 8 12 12 11 9 7 7 6 3 3 4 5 5 8 6 7 8 9 11 12 11 11 8 9 9 10 11 12 11 11 19 19 19 17 17 17 16 18 20
12 6 7 9 8 9 11 12 7 10 11 14 16 14 10 10 4 5 1 10 6 7 9 8 11 13 14 14 10 17 18 11 12 14 13 11 12 12 11 12 12 13 14 15
9 7 8 5 5 5 4 4 4 7 4 3 2 3 3 4 8 4 7 6 9 9 6 13 16 15 12 8 9 15 17 8 16 18 16 14 13 13 14 14 12 13 14 16
7 3 7 6 8 8 11 10 7 6 7 11 8 5 6 8 9 6 7 5 6 7 7 9 12 17 11 12 14 17 17 15 19 19 15 13 13 14 14 15 15 13 13 14

GFSNGP_700_spd_015.txt.gz
Wind_Speed
47 43 31 45 29 47 49 45 39 35 40 48 44 29 21 23 30 29 33 26 26 30 36 31 28 22 20 21 20 26 25 25 25 22 24 24 24 25 25 26 24 25 27 29
40 29 48 43 35 38 45 47 48 45 50 30 32 24 36 30 30 33 30 27 34 30 35 34 29 23 23 19 21 21 28 26 25 25 26 26 26 25 24 26 27 27 28 30
31 33 25 31 53 42 32 41 43 45 46 39 46 40 27 23 32 29 25 28 26 31 31 31 30 27 22 18 17 21 28 28 27 28 28 27 27 27 25 24 26 29 30 31
24 22 10 24 24 37 35 30 33 41 39 37 35 42 39 33 21 25 29 25 36 36 27 28 28 26 22 23 24 21 31 30 30 31 31 29 29 29 28 28 28 29 29 27
20 28 19 31 24 25 28 35 31 27 23 24 33 33 32 39 39 32 36 31 32 29 37 33 32 26 25 25 25 26 31 33 31 31 32 32 32 31 28 29 28 27 26 25
21 16 20 30 25 27 23 17 29 30 23 25 29 27 29 30 26 27 28 26 35 37 33 47 39 38 34 33 29 28 30 36 33 31 32 32 33 31 29 26 24 29 24 20
27 27 22 3 31 26 20 13 17 24 23 24 25 29 30 30 33 29 30 31 29 33 41 27 36 35 36 33 30 29 31 37 36 36 34 36 37 32 27 29 29 24 21 20
12 20 6 31 28 20 24 26 21 25 25 24 24 25 27 29 30 31 31 29 33 35 42 43 32 35 38 37 32 32 34 36 37 39 40 41 36 29 30 30 23 20 19 23
6 7 4 12 27 26 23 29 27 25 30 25 22 28 30 30 33 34 33 29 28 33 38 44 34 32 32 29 20 33 38 40 41 42 40 38 37 33 31 23 19 20 25 25
11 14 10 5 21 28 30 19 14 17 20 22 24 25 24 20 24 24 31 34 29 24 34 39 43 36 35 31 28 30 40 42 46 41 38 36 35 29 22 20 20 22 24 26
17 14 7 10 16 16 24 24 24 19 26 23 23 24 19 25 25 21 26 36 35 37 27 29 32 35 33 33 30 34 37 40 40 36 33 29 27 22 20 19 20 22 23 23
8 16 20 12 10 9 18 24 28 24 24 22 23 22 18 23 22 24 28 32 37 36 37 32 24 23 26 33 32 31 30 29 28 27 26 23 21 18 18 19 20 21 19 18
12 11 13 20 12 11 23 21 22 20 18 18 19 20 23 18 25 26 33 15 36 31 31 28 25 24 26 26 24 22 24 24 22 20 18 17 16 17 19 18 17 17 16 17
11 12 12 19 14 20 20 22 21 21 22 25 26 25 22 26 27 38 41 11 14 15 17 18 18 20 22 23 21 23 21 18 17 16 13 11 11 15 17 16 16 15 16 16
19 22 19 23 16 15 15 14 17 22 20 19 20 24 24 24 28 28 3 12 14 18 23 23 23 22 23 22 22 18 16 16 14 15 16 15 15 15 15 23 19 19 17 11
13 11 19 17 15 19 12 12 14 17 15 13 9 8 8 14 13 15 11 11 18 21 22 23 22 20 15 13 13 15 13 15 19 20 18 14 14 11 15 16 14 12 12 15
25 26 24 20 18 20 16 12 10 11 10 13 19 21 17 15 15 12 9 12 11 13 12 13 14 16 18 16 18 17 17 19 18 18 19 19 14 12 17 16 11 13 13 16
18 18 13 12 11 9 12 11 8 8 6 0 2 12 21 16 13 13 13 11 8 7 10 12 12 11 14 19 21 17 18 17 17 17 17 21 13 18 22 16 15 14 16 12
32 25 18 17 13 10 5 14 15 20 13 15 12 16 21 10 11 13 13 12 12 9 8 10 9 9 9 13 13 15 15 11 16 23 22 19 24 19 19 17 22 21 23 24
20 19 16 17 15 18 14 16 13 13 11 10 10 8 15 12 9 4 1 9 14 14 17 32 18 14 11 14 17 19 15 14 22 21 20 25 25 23 20 23 22 26 26 26
17 17 21 16 15 14 13 12 13 11 4 5 5 6 7 7 8 10 5 5 6 6 7 9 12 18 18 18 18 24 23 20 17 17 23 22 21 19 20 26 24 22 27 21
16 22 15 15 11 14 18 15 13 14 11 9 10 8 6 6 6 5 3 3 1 2 3 5 6 8 13 18 20 23 20 19 23 25 23 24 31 20 27 22 15 16 23 20
23 26 27 25 21 17 20 17 15 11 7 9 8 6 6 4 4 3 4 4 3 2 4 5 7 9 13 15 16 8 16 18 21 26 24 22 19 23 19 23 27 25 24 24
20 17 16 14 14 15 11 11 13 15 14 14 9 9 8 9 9 11 12 10 5 5 3 3 5 9 9 17 17 13 4 16 15 16 21 24 18 20 21 22 27 32 25 25
10 8 7 6 7 9 8 8 11 9 7 7 5 5 9 8 5 6 8 8 7 8 7 4 4 5 4 14 21 21 20 15 17 17 12 10 14 18 19 17 17 21 23 28
2 1 2 2 3 3 3 4 2 2 1 5 2 3 2 5 7 7 2 0 1 1 6 4 6 8 12 13 20 24 23 20 20 25 21 20 21 15 17 18 17 20 19 16
7 6 8 9 5 4 5 4 6 10 11 12 14 15 14 14 9 9 10 12 10 16 8 10 17 15 16 16 16 22 20 20 18 20 25 22 29 30 32 19 18 18 19 19

GFSNGP_700_spd_018.txt.gz
Wind_Speed
39 38 49 45 39 46 45 54 49 49 41 47 43 37 25 12 24 26 37 38 38 22 49 42 41 33 22 20 23 23 25 29 27 28 26 29 30 28 26 26 25 24 25 25
30 31 49 50 45 46 37 45 55 51 46 37 34 32 47 39 31 36 35 33 32 30 34 41 42 40 28 23 25 22 20 28 27 29 31 31 31 29 29 28 29 28 28 29
13 25 42 37 60 46 46 43 43 46 45 36 36 33 28 29 25 26 41 32 37 36 27 28 39 41 34 29 26 24 22 25 30 30 33 33 33 32 32 30 29 28 29 29
17 12 20 37 42 51 40 34 29 27 44 38 33 31 27 37 32 23 31 33 37 38 39 38 33 37 34 29 31 28 25 28 29 31 33 35 36 35 34 32 31 31 31 28
9 14 17 33 21 43 41 44 40 36 28 33 40 29 32 29 31 42 28 34 39 33 33 30 33 36 34 32 29 27 25 27 34 33 35 36 38 38 36 35 34 31 29 25
23 6 9 24 19 29 21 17 33 32 30 29 20 31 35 30 29 32 38 36 32 30 38 35 33 33 36 37 35 34 32 27 30 36 32 37 38 38 37 37 33 30 24 25
34 17 12 16 28 24 21 19 19 22 22 24 26 23 25 27 29 29 29 34 41 40 41 45 47 39 42 40 39 34 30 29 29 33 34 32 38 39 39 36 29 27 25 24
16 15 8 10 25 31 29 15 16 18 18 21 23 26 27 26 28 27 26 30 30 31 38 43 48 46 46 52 43 38 38 31 31 31 34 37 36 39 35 32 31 28 25 31
17 6 11 4 17 22 27 27 25 26 17 13 18 20 21 25 27 30 33 27 29 35 37 40 40 53 54 45 43 42 40 37 34 31 36 42 41 37 34 31 29 26 29 25
26 18 9 3 15 21 22 21 20 22 25 21 13 18 20 26 27 29 31 33 32 25 30 38 42 46 52 44 40 42 39 34 34 37 39 45 42 39 35 32 27 30 26 23
24 24 11 4 10 13 12 18 16 19 22 16 13 17 19 20 21 24 26 26 27 35 37 30 35 52 56 51 46 43 39 31 31 32 37 43 43 39 35 29 23 24 23 24
16 20 6 4 6 10 15 20 24 19 21 16 12 15 17 19 14 16 20 25 31 37 38 42 39 44 53 52 46 46 42 43 40 36 38 39 32 28 27 27 22 24 25 27
15 7 10 8 6 12 8 12 23 25 27 29 23 20 23 23 19 27 29 32 35 39 43 49 47 30 45 35 32 36 35 35 32 28 31 29 27 19 27 23 23 23 23 23
23 12 16 7 6 6 10 4 12 12 15 22 23 24 28 25 26 30 31 35 39 48 60 65 68 74 33 30 34 31 34 32 23 27 25 18 20 29 25 18 17 18 18 19
24 25 21 15 15 17 11 13 15 18 18 26 26 25 22 26 28 28 31 32 33 17 19 16 20 32 30 31 28 22 18 21 25 26 27 27 25 22 21 20 19 21 20 18
16 17 21 21 19 15 11 11 18 7 16 17 14 13 15 20 23 24 16 9 4 5 11 10 17 20 22 23 24 25 25 24 24 25 23 20 20 19 18 17 17 15 17 17
16 17 19 14 18 12 6 7 6 16 7 5 7 9 11 8 8 8 9 9 6 8 13 13 19 20 20 23 24 24 21 20 20 19 16 12 14 11 15 21 26 30 17 16
18 23 21 19 19 14 10 8 7 4 7 9 4 5 6 9 11 11 10 9 11 9 8 12 13 16 15 20 20 19 17 18 19 18 19 19 25 33 24 16 16 15 15 15
17 13 16 10 6 1 8 10 9 10 11 11 11 10 8 7 9 10 10 10 9 9 8 8 12 12 16 16 15 12 14 20 20 17 16 15 16 17 21 13 13 16 18 20
24 22 19 19 16 15 15 15 14 10 10 5 10 18 22 18 15 14 11 9 8 10 9 8 8 8 12 14 15 16 20 17 12 10 14 16 16 19 18 18 22 16 16 19
32 21 24 18 17 17 16 15 15 14 13 12 12 13 10 6 1 9 16 2 0 3 10 19 29 26 21 22 28 23 22 21 17 16 19 21 21 21 17 19 20 21 22 19
26 24 23 21 18 18 16 14 14 12 14 12 12 13 12 13 12 7 6 2 1 1 3 2 0 2 5 12 15 17 19 17 17 18 18 19 18 18 19 21 17 19 22 25
23 19 19 17 18 20 18 16 14 13 9 9 6 9 7 9 12 11 5 4 1 1 4 3 3 4 6 6 4 9 12 12 14 15 17 17 20 22 18 23 22 22 19 23
15 16 14 13 8 10 10 13 11 10 9 4 5 6 9 9 5 7 7 8 5 5 6 9 10 10 9 7 10 14 8 9 10 12 16 19 18 21 22 22 22 21 22 22
9 8 7 5 7 6 4 3 3 4 4 2 1 1 5 5 4 6 7 4 5 2 6 10 11 11 14 16 15 16 19 17 19 18 17 16 18 16 13 14 16 14 20 25
12 9 10 9 7 5 7 8 8 7 7 5 6 8 3 4 6 5 6 7 9 9 9 12 14 11 9 12 21 21 16 19 18 17 20 21 16 16 18 17 18 18 19 18
12 10 8 9 9 9 9 9 10 10 12 13 14 15 15 14 14 15 15 14 16 17 17 17 18 17 16 15 16 20 27 31 26 24 24 24 23 24 24 27 27 26 23 24

GFSNGP_700_spd_021.txt.gz
Wind_Speed
28 29 37 35 28 49 52 53 42 45 43 46 45 38 24 22 24 26 23 18 26 29 39 39 39 34 38 32 31 32 32 36 37 34 31 29 33 33 31 30 29 29 28 26
31 24 28 36 45 44 49 55 53 44 44 39 44 42 44 44 39 31 24 27 22 30 43 40 36 34 42 42 35 34 35 35 35 36 35 34 32 36 36 32 31 30 30 28
17 16 20 31 64 51 42 48 46 55 48 41 46 37 29 29 34 40 30 25 29 34 42 43 41 40 37 45 39 36 34 37 34 34 36 37 37 35 39 38 35 35 33 31
14 13 8 40 40 46 50 43 45 45 35 31 42 36 30 27 29 28 32 28 33 37 37 36 32 35 32 39 42 38 38 36 33 32 35 39 41 38 39 41 39 37 35 32
6 9 25 32 19 30 42 49 42 43 41 30 20 35 44 29 27 28 30 29 23 31 44 40 40 32 28 35 46 42 42 36 35 31 33 37 41 42 40 42 41 39 36 34
14 6 6 8 19 29 30 45 46 35 31 30 24 29 35 31 29 28 24 32 33 25 32 37 43 38 36 38 42 45 39 38 35 34 35 38 38 43 42 43 42 40 38 36
31 12 19 18 14 16 25 43 34 36 38 39 33 27 21 29 33 31 27 28 29 31 27 30 31 33 34 38 44 43 34 35 35 37 35 37 39 39 46 44 44 43 40 36
28 19 16 12 14 12 13 17 33 30 28 29 26 25 22 21 24 31 30 29 28 28 27 31 33 34 33 38 35 37 38 40 40 36 37 38 39 40 38 46 46 46 42 35
26 32 25 14 9 9 22 23 28 25 22 24 26 25 22 21 22 23 25 26 25 26 26 27 30 31 35 36 40 47 45 47 45 39 45 40 39 42 43 40 45 46 44 40
41 28 49 20 8 13 17 23 24 24 19 18 20 18 18 18 19 20 19 20 23 27 30 31 32 35 37 38 40 44 46 49 52 50 47 51 43 45 47 48 43 43 43 40
42 34 35 28 10 16 22 25 25 23 24 22 19 17 11 8 10 14 16 17 19 20 23 28 32 38 44 44 48 51 49 54 57 53 56 53 51 50 50 48 45 44 40 37
38 38 40 29 20 18 17 25 23 21 21 20 17 12 9 6 5 7 11 12 14 18 21 26 29 33 37 41 49 51 54 60 59 60 58 54 58 50 42 43 44 40 40 25
32 38 37 21 14 18 5 10 20 18 15 16 12 9 4 5 8 12 12 17 24 25 29 30 32 35 39 46 50 55 60 65 62 59 58 57 46 47 49 45 33 16 28 19
35 39 27 40 8 5 4 8 5 13 17 13 11 6 4 9 13 14 20 24 28 28 30 34 36 42 49 49 59 60 59 59 54 57 56 49 43 38 38 48 52 30 27 23
33 25 27 21 11 5 9 7 5 3 10 12 16 14 6 12 19 21 25 27 27 30 27 31 29 29 34 34 49 66 52 36 27 48 36 17 17 24 29 28 28 28 23 25
30 28 19 14 14 11 7 6 7 6 6 5 11 19 21 19 19 19 17 19 21 19 14 12 15 25 26 31 24 55 56 23 20 40 26 29 29 22 27 26 27 26 23 22
34 30 25 21 22 16 16 11 10 10 10 10 17 7 6 9 12 12 6 7 6 5 7 8 9 13 18 18 25 18 37 39 18 16 20 22 22 20 20 15 15 16 19 16
17 22 25 19 13 10 8 8 8 7 5 6 7 7 5 3 5 6 5 4 1 1 3 3 5 6 8 15 18 20 23 22 21 20 19 16 14 14 13 14 16 19 17 17
25 21 19 16 13 9 6 6 7 7 6 4 4 4 5 5 4 7 9 8 6 3 1 2 2 1 1 6 7 10 11 12 12 10 9 10 12 14 15 16 14 11 12 11
28 29 26 23 22 20 18 19 15 8 3 7 9 10 8 9 11 12 9 10 10 9 8 2 2 4 4 7 10 10 10 11 10 12 15 10 11 12 12 12 10 12 15 17
33 29 27 27 22 22 21 20 13 19 18 18 17 12 7 4 5 2 8 12 11 8 10 10 9 12 9 4 4 6 4 9 14 13 11 12 13 13 12 12 12 14 17 16
22 27 24 21 18 17 20 16 15 14 11 7 7 9 10 8 7 6 5 2 2 1 2 5 7 5 11 19 25 26 30 16 16 18 17 11 14 14 13 12 13 14 14 11
25 24 22 21 19 17 13 13 13 14 13 12 10 9 11 13 12 6 4 4 4 5 6 6 7 6 2 3 4 6 10 14 10 9 6 9 11 9 9 13 12 13 14 17
17 17 18 12 10 9 11 13 6 7 8 7 7 8 9 8 9 9 11 10 9 7 6 5 4 6 7 4 1 4 4 4 8 5 5 6 11 12 10 9 12 14 16 15
15 11 8 7 8 7 7 5 4 3 4 7 9 9 7 5 5 6 11 9 12 11 10 9 9 7 5 4 6 6 6 15 11 12 13 10 10 14 15 15 13 12 13 16
21 19 17 17 15 12 10 8 8 9 9 9 9 10 11 10 9 9 10 9 9 11 15 17 14 13 9 7 10 11 12 14 15 11 12 12 10 12 13 17 15 15 16 14
19 19 18 18 17 17 17 16 14 13 12 11 10 11 11 11 13 15 19 21 23 22 20 22 22 19 15 13 13 14 16 16 17 20 16 24 14 14 16 21 22 20 22 22

GFSNGP_700_spd_024.txt.gz
Wind_Speed
12 18 21 25 32 40 37 51 41 50 54 54 46 38 32 20 18 28 32 33 27 26 21 22 31 36 30 29 26 25 29 34 35 34 32 30 29 28 32 32 32 37 39 37
24 19 23 32 34 35 35 33 33 52 47 43 43 42 35 34 33 31 23 24 26 22 25 25 31 35 31 29 30 31 30 31 34 34 34 34 34 30 35 36 33 37 40 38
11 12 19 31 35 39 41 38 36 42 41 43 44 42 39 39 37 35 33 32 33 24 21 25 29 33 33 28 28 31 34 32 32 34 34 37 38 35 36 38 39 36 38 39
14 13 8 11 22 18 30 48 47 41 31 30 35 39 38 39 33 30 24 26 34 26 26 28 28 27 29 29 29 35 40 35 37 35 36 39 42 41 39 40 42 41 39 39
9 18 30 28 14 17 24 31 40 47 38 29 24 31 35 28 34 30 28 23 22 28 30 32 33 35 30 34 34 33 40 42 41 38 36 37 43 42 41 43 43 44 44 42
13 9 8 3 21 31 26 33 19 27 32 39 30 38 37 25 30 30 26 24 23 25 24 24 31 32 36 37 35 37 36 35 40 40 38 40 39 41 43 44 46 45 45 45
36 17 15 25 21 16 20 28 26 30 28 28 35 35 26 26 24 32 27 27 25 24 21 25 22 30 35 38 37 32 28 33 36 45 42 37 35 40 42 42 46 49 46 46
32 17 22 11 31 26 24 26 30 21 30 25 35 30 31 27 23 23 28 26 24 25 24 25 25 23 25 32 35 40 47 39 41 40 45 43 42 39 42 41 42 46 51 50
24 32 8 18 21 22 28 22 26 38 32 37 35 40 37 32 29 23 24 27 28 28 24 25 25 26 27 28 30 32 31 32 33 38 36 41 42 39 37 40 47 46 45 53
34 40 41 39 35 27 23 19 21 26 29 34 35 34 35 34 32 28 24 20 21 22 23 25 25 26 26 28 30 33 34 36 37 36 39 52 51 48 44 40 44 54 51 50
39 32 29 39 45 36 19 19 18 24 24 25 27 31 30 29 26 24 24 25 25 25 25 27 30 31 31 32 32 35 35 37 40 43 44 47 47 53 44 48 45 49 45 49
42 38 30 29 44 36 22 28 20 19 20 27 28 28 26 24 23 21 21 23 24 26 25 24 26 28 33 38 40 41 43 45 46 49 51 51 50 47 47 50 55 57 51 50
43 26 35 35 37 34 26 31 26 22 20 20 22 24 25 23 22 20 19 18 17 16 17 18 21 27 32 35 37 44 51 52 54 56 58 56 53 53 54 57 58 57 57 58
36 30 37 31 32 33 27 34 28 26 23 27 21 18 17 16 15 14 14 15 16 19 21 23 26 31 37 40 43 46 48 55 58 64 68 69 66 60 46 45 41 49 54 57
38 27 37 25 26 32 37 29 18 20 19 19 16 13 11 12 13 13 14 17 19 21 22 23 24 27 27 28 28 30 33 40 44 52 65 72 64 53 33 36 40 30 30 38
36 25 25 25 20 17 23 21 19 18 14 14 9 6 6 11 17 14 11 11 14 16 13 13 14 15 18 20 20 22 19 8 21 26 35 57 38 35 39 42 38 47 31 31
32 27 36 23 15 11 11 16 13 5 8 9 4 3 2 1 3 7 11 9 6 5 4 6 8 8 6 11 12 12 6 16 21 23 24 13 14 16 22 35 38 16 16 27
26 19 25 24 19 16 15 14 13 11 8 7 8 9 7 5 3 4 3 2 2 1 1 2 3 5 7 9 11 16 16 2 17 1 15 7 10 12 15 18 26 29 27 25
23 21 18 21 20 16 14 12 10 9 9 7 6 5 7 7 5 3 2 1 1 2 3 3 2 4 5 4 7 11 15 18 16 13 12 13 14 14 14 18 22 24 23 23
29 25 27 26 21 14 10 6 7 5 5 2 2 3 3 2 3 5 4 4 3 2 4 4 3 5 6 4 3 4 3 3 7 8 9 10 13 14 16 13 11 16 21 20
36 30 31 31 28 23 24 20 18 20 20 20 20 20 15 12 9 5 5 7 6 8 6 7 7 7 8 14 9 3 6 3 3 5 6 12 13 15 11 11 15 18 22 24
40 37 35 24 28 24 23 21 22 21 18 17 22 21 15 14 11 8 9 6 9 8 6 4 3 3 6 11 15 13 13 11 12 13 6 6 6 7 12 13 11 11 16 15
29 25 24 24 23 20 21 21 18 17 16 15 12 15 15 13 13 13 11 16 14 12 10 8 6 4 5 7 8 7 1 3 7 5 20 19 11 10 12 14 12 11 17 17
15 16 17 15 11 10 12 12 9 10 11 12 13 14 13 9 9 13 16 13 13 14 12 11 10 9 8 5 2 3 2 4 5 4 3 2 4 3 9 6 4 7 8 12
24 23 20 16 12 14 12 11 10 9 9 9 10 10 9 8 9 12 11 9 9 9 11 11 8 6 3 2 4 3 5 4 8 7 4 3 2 4 5 4 3 3 8 13
20 19 18 18 17 15 14 12 11 10 9 8 9 10 11 12 13 12 12 12 11 12 15 18 15 11 6 5 6 7 10 15 15 15 15 14 11 10 11 11 9 9 9 9
19 18 18 18 16 16 16 14 14 14 12 10 10 10 10 11 12 13 15 16 17 17 16 14 15 17 16 12 9 10 11 14 12 12 8 13 16 14 12 21 21 21 19 18

GFSNGP_700_spd_027.txt.gz
Wind_Speed
14 19 17 21 27 26 27 39 39 43 47 36 39 35 25 22 22 17 23 27 30 29 24 22 24 24 27 30 36 36 39 36 35 32 31 32 30 28 27 28 29 33 36 39
12 15 12 19 30 34 34 35 29 44 45 30 23 30 35 42 38 25 16 16 20 26 23 24 19 23 31 31 32 33 31 29 28 35 36 35 34 32 30 30 29 34 37 39
10 10 18 25 39 30 30 31 36 44 36 36 40 42 31 22 27 27 31 27 24 23 27 24 20 25 32 35 36 33 29 25 27 30 32 33 33 36 34 33 32 35 38 38
11 7 10 21 22 27 26 26 36 49 49 44 42 39 32 31 29 27 23 20 18 18 25 28 23 24 28 38 40 37 36 32 27 25 28 30 33 34 34 35 36 37 39 39
10 21 24 27 19 17 20 25 22 24 32 38 35 29 33 26 27 21 17 22 23 21 20 30 27 24 28 30 38 40 34 34 35 33 33 34 33 34 36 39 37 40 41 43
10 11 12 13 26 25 26 28 30 29 18 27 30 40 36 22 21 21 20 25 27 24 23 23 32 30 31 32 35 33 30 28 30 30 33 37 38 36 35 38 41 39 42 45
27 19 17 22 15 12 18 12 14 19 28 20 31 38 33 26 27 23 21 24 29 27 28 25 29 31 34 34 37 36 39 38 36 35 34 35 40 41 40 37 39 40 40 43
24 21 27 21 31 28 15 14 12 12 23 32 30 26 28 27 27 27 23 21 29 27 28 26 22 27 26 31 36 40 40 39 39 38 35 37 38 32 51 48 41 41 40 40
21 25 13 17 32 28 35 40 31 20 18 27 20 32 32 26 25 29 26 21 28 29 28 26 24 27 29 28 24 29 37 42 42 44 40 41 40 41 37 39 43 35 42 45
35 43 33 34 25 28 34 32 27 34 36 30 32 30 27 32 30 31 28 27 22 29 32 30 30 24 30 30 31 31 30 31 32 34 40 41 44 41 37 34 42 44 51 52
32 38 41 39 39 28 27 27 27 20 31 34 36 41 39 37 38 39 35 33 26 24 25 26 28 28 28 27 27 27 28 30 32 34 37 41 45 44 37 44 45 45 52 50
43 33 38 37 33 40 38 32 27 17 24 24 23 27 30 31 33 35 36 35 32 28 27 27 27 28 29 30 30 32 33 35 38 40 43 45 47 48 48 45 44 48 49 53
37 31 33 36 39 26 29 34 28 25 21 23 27 29 31 33 33 31 30 29 29 29 30 31 30 31 31 32 33 36 37 39 42 45 50 55 56 56 56 59 55 51 49 51
25 24 29 31 33 27 23 29 30 30 28 27 26 25 25 22 21 23 24 25 26 26 25 23 21 21 25 29 33 37 40 43 46 50 55 60 63 65 66 65 66 62 56 51
24 25 22 23 28 26 26 29 24 26 33 30 30 20 16 15 13 15 19 20 21 20 19 21 25 29 33 37 40 43 43 41 38 40 45 53 59 63 62 62 65 63 62 48
16 21 21 25 35 20 32 28 31 28 27 29 26 25 22 18 17 15 13 16 15 18 20 24 27 30 32 32 33 32 31 29 29 28 30 27 26 34 40 46 55 60 62 46
11 19 23 21 22 40 33 26 24 26 24 26 31 20 15 15 12 15 8 12 14 14 14 16 17 18 17 17 18 18 17 18 18 20 20 14 20 32 26 22 19 20 24 34
8 22 25 22 24 26 24 22 22 23 23 22 20 16 12 8 6 9 7 7 7 8 9 9 9 8 6 4 6 7 9 10 8 9 9 12 6 7 5 2 5 14 18 18
30 34 32 27 18 14 20 22 22 21 16 14 11 11 13 12 11 8 5 6 5 4 3 3 3 3 6 5 3 3 5 6 10 8 6 9 10 18 15 13 12 12 14 15
26 27 24 25 21 22 25 23 23 23 20 16 15 13 11 10 7 4 3 3 1 1 3 4 5 5 5 6 8 7 2 2 3 5 5 7 6 5 10 10 11 12 16 18
42 34 35 34 33 35 33 34 34 34 27 22 22 21 17 15 11 7 1 2 3 2 3 8 10 12 10 6 7 9 9 4 2 3 1 5 8 9 13 14 15 15 18 22
38 38 35 33 35 30 31 29 30 28 27 26 24 20 15 15 13 10 9 9 12 9 5 1 1 1 3 3 4 11 12 12 12 11 11 11 13 15 17 20 21 20 22 28
28 26 25 28 27 26 23 23 21 18 22 22 16 14 13 16 15 13 11 15 15 14 7 2 4 4 4 3 4 4 3 4 4 7 9 12 16 15 10 7 16 13 16 18
28 26 21 17 13 9 8 14 17 15 12 9 8 11 9 8 6 8 7 9 7 5 6 6 5 2 2 2 1 4 5 7 5 4 5 4 3 2 5 10 6 6 8 13
22 20 18 17 17 18 17 16 11 8 7 7 8 6 2 2 3 4 2 2 4 5 7 11 9 4 3 7 6 2 8 7 3 3 4 5 4 4 3 1 1 3 4 6
22 22 20 17 15 12 11 9 9 10 9 8 7 7 6 6 6 6 6 7 9 12 14 13 11 8 7 7 9 10 12 12 12 13 12 12 11 12 10 9 8 9 9 9
19 18 18 17 15 13 11 10 9 7 7 7 7 8 9 10 11 12 13 13 13 13 13 13 12 11 10 9 10 13 14 16 15 16 19 19 19 19 20 20 19 19 19 18

GFSNGP_700_spd_030.txt.gz
Wind_Speed
23 12 10 24 41 42 44 41 40 31 31 25 15 14 11 9 8 14 16 14 16 19 31 28 23 20 21 25 38 39 41 39 38 33 33 33 33 31 31 31 30 26 29 33
19 15 11 16 22 27 36 39 40 39 34 22 20 20 28 24 20 20 22 15 12 20 27 26 22 22 21 22 29 43 43 37 38 37 37 36 36 36 36 35 32 30 27 30
21 18 17 23 31 30 30 33 30 38 28 25 25 26 25 24 23 25 30 23 19 18 20 26 26 27 26 24 21 35 45 41 40 42 41 40 39 38 39 37 35 32 32 29
11 14 15 22 22 27 35 33 31 30 25 24 21 22 24 23 21 20 22 27 26 22 22 24 29 30 28 28 27 34 40 40 38 38 36 33 35 37 39 42 39 36 34 35
20 22 11 12 13 11 17 26 30 26 24 24 24 27 33 33 30 24 16 21 27 25 24 25 27 31 32 30 31 31 40 40 38 36 34 33 33 35 35 41 43 42 42 38
13 21 17 12 25 15 8 17 15 18 16 17 18 23 25 21 21 19 17 19 18 25 28 26 27 30 32 32 33 33 38 41 40 40 39 35 33 31 30 36 43 46 47 43
25 23 18 20 5 9 19 4 10 11 12 16 27 20 17 23 28 26 21 24 21 20 28 26 27 30 31 34 31 30 31 41 44 40 38 36 33 33 32 30 32 36 46 49
28 29 30 19 19 17 11 8 9 11 12 15 25 31 19 18 28 29 28 28 25 21 28 31 27 30 30 32 29 30 34 33 38 39 37 37 37 38 38 40 39 36 39 43
24 31 21 15 27 26 27 25 21 25 22 18 21 21 28 29 25 27 30 32 30 22 24 31 27 30 26 28 26 27 31 36 39 42 41 41 40 40 43 44 42 40 41 45
31 38 34 25 27 40 32 34 33 29 27 24 20 17 20 23 23 30 30 30 29 23 22 29 29 27 28 27 28 28 28 30 34 38 40 42 44 44 44 45 43 42 38 36
35 36 33 34 33 32 35 35 40 46 42 31 31 24 26 27 27 25 31 29 25 22 23 28 32 31 29 29 25 31 32 32 30 30 31 33 34 36 39 37 39 37 36 36
41 29 29 30 28 33 36 36 35 37 36 36 40 43 32 33 31 30 29 31 29 26 26 25 29 33 34 34 31 29 28 29 30 31 33 35 37 39 41 41 43 43 42 40
40 34 34 31 30 32 29 44 38 34 34 30 28 32 36 38 32 32 28 27 30 31 29 30 31 31 30 31 33 32 33 33 34 35 37 39 42 45 49 50 52 53 52 48
39 35 37 38 40 31 28 34 39 36 26 26 22 23 25 25 27 32 34 34 34 34 32 31 31 30 29 30 30 31 31 32 34 35 39 42 46 49 53 56 61 62 65 65
26 33 36 27 25 25 26 29 30 29 29 23 28 26 27 30 32 33 33 31 29 27 24 22 22 23 23 24 25 27 30 33 37 40 43 47 49 49 49 51 55 63 64 64
24 25 25 23 22 19 23 24 26 28 25 29 32 33 32 28 28 27 24 22 21 19 17 15 15 16 20 23 26 27 30 34 35 38 39 39 41 41 42 41 43 42 47 45
21 12 13 21 16 20 18 28 22 26 32 36 34 31 29 25 24 22 21 18 14 13 13 13 12 13 15 20 24 26 26 27 31 28 28 28 28 27 21 19 19 23 26 30
15 15 11 10 16 14 14 31 26 30 42 36 31 34 29 23 20 16 13 14 12 9 9 10 10 7 8 10 15 17 18 18 19 19 22 21 16 13 13 12 10 13 16 21
18 27 29 34 30 23 32 30 23 23 28 31 29 26 25 20 22 27 21 13 15 13 10 11 9 6 6 6 7 9 7 6 8 5 3 4 4 6 4 5 5 1 1 3
49 37 26 25 26 28 31 29 26 25 20 19 21 19 16 17 15 14 14 15 10 11 10 13 10 7 5 5 6 6 5 5 4 5 4 3 3 4 5 5 4 5 8 10
47 45 48 45 41 37 31 32 36 39 36 30 22 19 16 15 9 8 9 8 6 7 5 6 9 9 10 10 10 11 10 9 7 5 4 5 5 5 7 8 6 3 7 7
39 38 40 39 37 36 35 35 34 30 28 24 23 21 15 13 10 7 6 6 8 6 7 6 5 6 7 8 10 14 14 12 13 14 14 14 14 14 12 12 11 10 11 16
34 31 28 27 25 24 23 25 25 22 19 16 13 15 14 13 11 9 5 6 6 6 3 1 1 2 4 4 5 5 7 9 11 12 11 10 14 17 17 15 18 21 26 25
25 23 22 21 17 14 14 12 10 8 6 6 6 6 5 5 4 3 5 5 3 3 2 2 1 3 5 5 3 2 2 8 7 6 4 4 3 4 5 9 15 12 9 8
18 16 14 12 11 11 11 10 9 6 6 4 3 1 4 6 5 4 2 3 4 5 6 7 7 7 8 9 12 10 8 9 11 9 8 8 7 6 5 4 3 10 13 10
18 16 14 12 10 9 7 5 5 4 3 3 3 3 4 4 4 5 5 6 7 8 9 9 9 8 9 11 13 14 15 14 12 9 10 13 13 15 15 12 9 9 9 10
18 15 13 11 9 8 6 5 5 6 6 6 7 7 8 9 9 9 10 10 10 11 10 11 12 11 11 11 12 15 17 18 19 18 18 18 20 23 23 22 20 17 15 13

GFSNGP_700_spd_033.txt.gz
Wind_Speed
35 20 20 41 43 45 45 38 38 23 25 17 12 13 15 15 14 14 12 19 30 30 28 30 31 27 20 24 30 33 36 36 34 29 29 29 27 24 24 25 25 25 25 26
31 32 15 18 28 44 44 40 36 32 23 25 15 14 11 11 12 13 13 14 14 12 23 31 34 28 25 21 22 24 32 38 37 34 33 31 30 30 29 29 28 29 28 28
23 30 18 25 30 30 38 39 36 36 31 21 16 15 15 13 13 13 14 13 14 14 17 24 28 30 26 24 21 23 22 34 42 41 39 36 34 33 33 33 35 34 34 34
17 23 23 26 25 27 26 28 30 26 21 22 20 18 20 18 16 16 20 22 20 16 17 20 20 23 29 31 28 25 23 25 35 43 42 45 40 39 38 39 40 41 41 41
17 22 12 27 21 24 30 33 27 26 25 21 20 20 21 20 21 22 19 18 20 21 22 23 22 23 26 37 34 30 27 25 29 38 45 44 43 43 42 43 44 43 43 42
13 18 18 12 15 12 12 19 21 30 26 21 19 19 13 15 18 18 18 17 17 20 22 25 30 31 34 37 37 35 30 28 28 36 41 44 45 45 42 38 38 43 45 46
24 17 19 5 11 13 19 7 14 15 16 18 20 21 26 21 25 26 27 28 27 27 29 29 30 34 33 32 35 32 34 32 32 32 40 41 41 39 39 40 41 43 42 43
27 29 26 14 6 15 16 15 10 13 11 9 11 13 23 26 28 30 30 28 28 27 28 26 26 33 30 31 30 33 34 33 32 32 35 44 44 44 44 43 42 42 39 37
29 30 19 22 22 20 10 13 11 7 8 11 7 12 22 30 26 24 24 29 32 30 32 27 27 34 33 26 30 29 29 30 29 30 29 38 46 44 43 43 41 41 42 40
28 30 26 24 24 24 22 20 19 16 16 17 13 12 18 22 25 27 24 23 30 35 33 32 27 30 33 29 28 27 29 27 28 30 32 33 36 39 41 42 42 39 42 43
35 35 31 31 30 29 29 34 30 32 27 26 23 21 22 19 15 18 19 22 24 30 32 33 28 28 35 30 29 30 28 28 28 27 28 30 32 33 35 35 33 34 33 32
37 27 31 31 30 30 33 37 46 39 32 36 33 30 25 15 23 24 19 19 22 26 28 30 28 24 31 32 30 29 29 26 28 30 32 31 31 30 31 30 30 30 31 34
47 40 39 35 29 26 28 28 33 53 54 45 41 39 41 37 35 36 34 27 24 24 27 30 27 23 26 33 33 33 33 33 31 29 30 29 30 32 33 34 36 37 39 40
37 50 50 47 36 34 27 30 34 43 51 53 56 53 45 37 43 43 38 33 26 28 30 30 30 30 29 30 31 30 31 29 30 31 32 31 29 28 31 35 39 45 49 52
30 44 52 46 44 37 38 30 28 30 35 32 32 39 43 37 32 30 28 31 34 35 34 33 33 34 33 29 28 27 27 26 26 27 28 31 35 38 40 43 47 52 56 56
10 28 39 44 43 40 37 33 27 25 31 28 31 27 22 23 25 28 30 34 33 35 36 35 35 33 30 29 28 29 28 27 27 30 32 34 37 39 42 44 46 47 46 49
19 11 9 15 21 20 19 20 23 19 28 28 31 24 28 30 33 32 31 32 32 30 31 29 27 26 23 23 22 23 23 23 23 25 27 29 30 33 36 37 37 39 39 37
9 13 13 13 12 17 10 12 25 23 27 30 32 40 43 32 33 33 30 27 26 24 23 21 19 16 16 17 19 19 18 16 16 17 18 19 24 24 25 24 22 23 23 22
52 40 34 21 16 25 26 21 25 27 32 42 38 41 28 32 34 32 29 26 24 20 17 14 14 13 10 8 4 10 8 8 8 8 9 10 12 12 11 11 12 12 13 12
50 47 44 34 25 27 25 33 34 33 33 36 31 37 44 37 36 31 28 24 21 17 15 14 13 12 12 12 11 9 7 7 8 11 11 11 12 11 10 11 12 11 12 7
43 42 44 47 40 38 39 37 26 25 26 26 25 25 23 19 18 16 18 21 19 17 18 19 17 13 9 11 12 11 12 15 15 12 11 12 11 11 12 13 15 15 12 12
34 35 34 33 34 33 34 37 36 35 30 25 24 22 18 20 20 18 16 15 15 11 8 7 7 11 14 17 17 17 15 15 17 17 18 20 18 17 18 17 17 16 16 15
23 24 25 25 22 20 20 21 21 20 19 19 18 17 15 15 15 11 6 9 10 8 5 4 4 7 8 9 10 12 14 16 16 14 13 14 14 12 15 19 20 19 18 21
20 18 16 15 13 13 14 14 12 9 8 9 9 9 8 6 5 5 5 6 5 4 4 3 1 2 3 6 2 3 8 10 9 11 11 7 5 8 9 10 10 11 13 14
16 16 13 11 12 13 10 9 8 7 7 5 5 3 2 2 3 3 3 5 5 5 4 6 7 7 7 8 9 11 11 15 18 11 10 8 8 7 10 11 13 14 14 15
16 14 14 14 12 9 8 7 7 6 6 5 5 5 6 6 6 6 5 5 5 7 8 8 9 9 9 10 13 14 13 11 14 14 14 15 13 14 15 17 19 20 18 16
15 13 12 11 11 11 9 10 11 10 8 9 11 11 10 10 10 11 11 11 11 11 12 13 12 12 13 13 13 14 16 15 14 12 14 16 18 20 21 23 23 23 20 20

GFSNGP_700_spd_036.txt.gz
Wind_Speed
37 35 25 40 42 43 50 38 39 30 28 18 13 17 19 18 21 24 29 28 31 28 33 30 26 26 25 23 24 28 32 29 27 25 24 25 24 22 21 22 20 22 24 26
28 28 24 20 41 43 44 42 35 32 27 19 20 20 18 19 20 19 21 19 21 31 27 26 36 28 26 23 20 22 25 26 29 30 29 30 28 26 25 24 24 24 24 24
27 21 25 27 21 40 41 41 35 35 26 28 24 21 23 17 13 13 13 15 15 20 28 30 29 28 33 28 23 21 20 20 21 28 35 34 32 31 31 28 26 25 25 25
17 14 17 23 21 20 20 38 37 30 29 20 16 22 18 16 13 9 11 13 12 11 14 26 36 39 41 38 29 27 25 22 21 20 27 37 35 34 33 32 31 29 29 27
7 12 11 14 17 27 19 18 22 41 29 18 14 14 13 11 12 13 14 15 16 16 19 17 18 18 21 27 30 31 29 27 23 23 21 28 36 38 39 36 35 35 34 34
8 10 11 12 17 14 23 21 12 11 14 13 10 9 11 19 21 23 21 20 22 22 21 22 24 24 24 30 34 39 34 31 28 26 26 23 30 37 41 40 40 41 40 39
14 9 9 4 12 12 16 7 10 12 21 17 12 15 17 23 28 27 26 24 25 25 27 29 30 34 34 26 34 35 34 34 33 32 30 29 28 34 39 42 43 43 43 43
21 22 18 14 4 8 7 12 14 18 18 21 20 19 14 22 26 26 25 25 26 29 29 32 36 37 40 42 36 30 32 32 33 36 36 35 34 33 39 43 45 45 45 42
23 30 22 11 8 2 3 7 9 14 14 20 20 17 18 26 31 24 23 25 29 29 32 31 36 34 35 34 33 34 34 34 34 34 35 35 35 36 38 42 42 42 43 43
20 24 22 19 18 18 11 8 8 10 13 15 16 18 18 35 34 30 23 18 21 24 31 35 36 32 30 32 35 36 33 32 31 31 30 31 31 31 30 36 40 42 45 46
23 24 24 27 23 18 19 21 16 17 17 18 23 27 31 26 17 21 27 19 18 18 23 31 36 35 32 30 35 37 35 33 30 29 28 25 26 29 29 29 33 36 38 39
34 27 29 31 27 26 27 26 27 26 24 25 27 30 23 16 19 14 12 14 14 10 17 22 31 34 32 29 28 34 35 31 30 29 27 27 27 25 24 24 26 28 28 28
49 47 45 42 37 32 30 29 43 41 33 36 37 35 28 23 26 21 15 17 20 20 16 21 24 26 30 30 27 31 34 31 32 30 27 29 26 26 26 27 28 28 28 28
24 33 53 53 53 44 38 34 43 54 50 46 43 37 36 32 38 32 26 24 27 27 27 20 19 24 27 25 23 27 33 34 35 35 33 34 32 30 26 24 24 27 29 32
24 31 41 39 56 56 45 39 31 35 63 64 46 41 40 37 41 39 37 34 34 31 35 33 25 25 24 26 25 25 29 34 36 33 29 25 23 22 23 24 25 28 30 34
23 18 25 30 38 55 54 47 46 45 48 49 63 65 49 42 50 47 32 27 37 33 28 34 26 26 25 26 26 27 27 28 29 27 26 26 24 24 24 25 27 30 32 36
21 22 2 11 19 41 48 51 43 48 43 29 26 33 41 29 33 41 39 47 48 51 34 32 24 24 25 28 29 29 27 26 28 29 29 28 27 27 28 29 28 31 34 33
30 20 18 15 8 13 27 32 28 24 26 26 28 25 31 29 32 30 37 43 40 30 29 23 24 24 24 26 26 22 19 21 23 25 21 22 23 24 24 24 25 24 25 27
47 30 17 9 6 7 12 17 19 20 25 24 32 29 34 37 36 46 44 45 42 33 30 29 25 23 23 23 23 20 21 20 18 19 19 20 20 20 19 18 18 19 20 21
46 38 33 37 25 32 40 34 19 19 18 19 20 25 26 42 50 36 39 33 33 34 32 28 25 22 19 17 15 15 16 17 15 14 15 16 14 13 16 16 17 17 17 17
37 36 35 33 34 31 36 44 39 31 30 33 35 35 37 30 38 37 33 39 36 32 30 26 23 24 26 25 21 16 15 12 11 11 11 14 16 16 17 18 18 17 19 20
25 27 29 31 29 30 32 32 32 26 26 22 21 25 29 28 22 22 24 27 24 24 28 26 23 19 15 15 16 16 18 18 18 19 17 18 19 19 19 20 21 22 22 22
23 20 24 24 21 23 24 24 22 21 20 22 22 24 20 19 16 14 13 10 14 16 16 18 18 15 8 11 12 12 13 15 15 17 19 18 18 20 20 18 16 16 17 17
17 19 15 20 24 20 17 17 15 14 14 14 15 15 16 18 19 18 17 14 15 12 10 9 5 2 3 5 7 10 10 9 9 12 15 16 15 15 15 14 12 9 10 11
15 16 16 10 13 14 14 13 14 13 10 10 10 10 9 8 5 4 3 5 4 1 4 5 3 5 8 8 9 10 8 7 7 6 8 12 11 10 12 13 12 13 16 18
20 12 13 16 12 10 10 11 8 5 8 10 8 6 4 3 3 4 3 3 5 6 7 6 7 8 8 8 8 8 8 11 12 12 13 13 9 11 14 16 18 21 21 18
15 10 10 11 12 17 15 10 9 10 7 7 10 9 8 7 5 4 6 7 6 6 6 7 7 9 10 10 9 10 11 10 11 14 14 13 14 17 19 21 21 22 22 22

GFSNGP_700_spd_039.txt.gz
Wind_Speed
27 27 25 30 51 46 47 42 37 37 24 17 10 12 24 28 22 31 40 30 37 38 35 29 19 22 23 25 26 27 25 24 22 22 21 20 20 22 22 21 22 22 22 21
18 28 20 15 19 50 47 44 44 32 34 25 21 16 19 23 27 27 35 34 27 35 34 31 26 21 20 20 21 23 25 25 24 23 22 21 20 21 23 22 20 20 21 19
5 9 7 10 25 19 48 43 40 37 35 25 24 25 22 28 28 29 30 31 31 32 42 37 30 23 22 20 17 16 16 20 23 26 28 26 25 26 27 25 24 22 21 21
7 4 1 14 17 7 38 34 34 43 18 28 29 28 26 23 29 27 27 28 29 27 27 37 40 32 33 32 25 21 17 17 21 21 21 27 31 30 30 30 29 26 25 23
6 4 3 11 6 8 7 14 8 25 28 36 33 32 29 24 24 26 25 26 27 27 26 26 20 23 29 34 29 29 23 22 22 20 17 16 19 31 34 34 33 32 30 28
6 4 2 12 8 9 15 13 7 15 39 40 34 31 27 26 27 27 27 27 26 26 24 24 23 20 20 31 36 37 36 31 28 25 23 21 18 17 23 36 37 36 34 32
13 6 5 21 17 5 11 8 13 19 32 26 33 30 29 31 29 30 33 28 27 35 29 29 25 28 24 24 28 26 26 26 30 29 27 25 24 24 23 23 31 39 39 37
15 4 5 13 13 26 14 1 8 24 32 35 34 31 29 31 29 29 27 26 27 27 29 30 31 28 28 31 30 28 29 31 34 36 34 33 32 32 31 30 29 31 36 38
10 4 10 5 6 4 14 5 4 6 23 27 27 27 26 27 26 24 25 24 25 25 27 31 31 36 35 31 32 35 39 36 33 34 35 34 35 35 36 36 34 33 32 38
14 16 11 9 12 3 4 9 9 9 10 14 22 21 18 22 24 23 22 23 25 26 26 28 35 39 43 41 39 41 40 40 34 32 31 31 32 32 33 34 33 33 32 34
27 23 25 17 20 20 22 17 21 17 17 12 11 16 19 21 26 26 29 29 29 28 28 24 26 33 38 38 38 41 41 40 38 34 33 33 31 31 31 31 31 30 28 28
39 31 32 34 31 32 30 27 21 22 19 19 15 18 20 21 27 34 32 31 34 28 22 20 22 24 21 29 32 30 30 30 35 37 36 34 33 34 32 29 28 28 27 28
42 43 42 42 40 38 38 36 33 31 28 24 19 20 21 21 26 30 31 32 29 25 23 15 13 18 21 25 29 29 28 27 30 35 40 35 36 34 33 30 26 26 25 26
18 28 43 51 53 46 44 46 46 45 41 36 32 27 26 28 25 27 25 23 21 19 17 16 15 13 16 21 23 25 26 29 29 33 36 35 34 33 33 31 28 26 25 22
12 18 28 34 41 56 59 55 52 50 50 47 45 38 33 34 32 35 34 30 27 28 25 22 19 16 13 15 19 21 24 23 24 27 28 31 28 28 28 27 26 26 25 24
13 18 25 24 36 42 47 55 58 54 54 51 52 48 41 42 43 43 38 39 35 33 32 27 27 24 16 17 19 21 22 20 22 25 28 30 30 30 30 30 29 27 26 26
11 18 19 7 6 23 37 40 45 55 54 52 54 59 54 51 48 46 44 44 40 29 33 37 31 37 28 22 23 23 25 25 25 28 30 32 32 32 32 30 29 28 28 29
20 17 14 16 10 8 16 23 33 46 54 51 46 42 43 51 57 54 51 39 33 29 29 31 34 31 18 20 25 26 28 29 31 32 32 31 31 30 28 29 31 29 28 28
41 33 17 15 10 9 4 10 23 34 39 39 39 36 35 32 37 47 49 45 44 35 36 37 41 26 23 24 23 27 28 33 35 34 32 29 28 28 27 25 23 22 21 22
35 34 35 36 22 12 9 5 9 12 15 13 21 22 28 26 30 33 33 33 43 46 44 29 34 37 33 31 29 29 26 26 27 28 22 20 21 20 19 19 20 21 21 22
27 30 31 31 31 27 27 29 22 18 20 25 25 28 33 18 20 28 39 37 36 44 43 38 28 27 30 36 42 43 34 30 28 26 22 18 18 19 19 19 20 21 22 22
23 25 26 27 28 27 23 24 24 20 17 24 32 35 34 28 25 26 36 37 33 36 32 36 42 39 36 38 34 28 28 28 23 18 18 17 18 19 20 21 22 22 23 24
20 25 23 26 25 21 19 21 22 21 19 20 23 24 22 27 28 32 22 20 26 26 30 30 28 22 16 15 18 21 23 21 17 16 19 19 19 19 20 21 21 20 19 18
15 20 15 18 24 25 26 22 17 14 16 19 21 21 19 19 17 14 18 17 15 17 19 19 17 13 11 10 8 10 13 14 16 16 17 19 18 17 13 12 12 11 11 11
16 16 15 10 14 17 16 14 16 19 18 18 16 14 14 15 16 17 17 15 12 8 7 10 8 8 5 2 6 7 9 10 11 11 9 7 10 11 11 11 11 13 13 12
8 7 11 15 14 12 14 13 10 8 12 14 13 12 10 9 8 7 6 5 3 3 1 1 2 3 3 3 4 5 6 9 11 12 12 12 15 17 17 17 19 19 20 20
13 8 10 2 9 11 12 16 16 9 8 10 7 6 7 4 4 4 3 3 1 2 2 4 5 5 7 10 8 6 9 12 14 14 15 16 17 19 20 20 21 22 21 21

GFSNGP_700_spd_042.txt.gz
Wind_Speed
26 27 22 22 16 30 44 43 38 39 41 44 30 25 11 22 24 34 34 34 33 35 38 36 28 23 21 17 19 20 23 26 27 26 26 26 26 24 24 25 23 21 21 19
17 15 18 13 20 27 36 47 45 40 34 27 18 16 12 20 24 28 29 29 35 34 35 38 32 24 25 22 20 21 21 21 21 22 21 22 23 23 24 23 22 22 20 19
9 8 14 7 3 13 31 42 41 40 25 20 23 20 21 23 21 26 29 33 33 34 34 35 33 24 25 22 19 22 22 22 22 21 22 20 19 20 21 21 21 22 23 22
11 3 6 12 12 13 14 23 26 28 37 38 22 23 25 24 25 26 28 31 36 35 33 37 34 30 21 20 14 16 20 20 21 24 26 26 26 24 22 23 25 25 24 24
5 7 9 11 9 12 11 16 11 15 25 25 30 32 29 32 33 32 31 30 31 37 40 38 37 34 30 26 23 25 24 22 20 19 21 23 26 28 29 29 29 29 28 28
9 4 5 16 4 10 25 21 24 28 33 36 37 41 36 32 32 34 35 35 33 33 33 38 42 40 39 35 32 29 30 24 19 17 19 20 21 21 21 27 33 34 34 34
5 1 6 24 5 5 13 8 13 29 35 37 37 41 37 33 32 32 30 32 33 32 35 36 34 32 36 33 28 27 26 26 28 28 26 25 21 19 19 20 22 27 35 38
3 6 4 11 18 23 16 12 9 17 28 32 36 40 35 36 34 32 31 29 27 28 27 31 32 30 28 26 27 27 27 26 24 27 28 28 26 24 24 25 25 24 24 27
6 8 9 9 19 22 10 7 11 13 18 23 28 36 30 31 33 34 33 31 27 24 24 27 32 32 30 30 29 29 28 30 30 32 30 30 31 33 34 34 32 32 31 29
12 8 3 4 10 15 10 4 4 2 8 17 23 25 26 28 27 31 34 31 27 26 25 27 28 37 35 30 30 31 31 31 33 34 32 31 32 32 34 34 33 34 34 33
12 12 13 11 11 13 12 10 8 8 7 10 19 21 25 24 25 25 24 28 27 27 28 28 27 33 39 42 40 37 35 35 36 37 39 38 38 36 34 33 33 34 34 34
23 18 21 18 20 25 23 19 19 14 12 10 11 19 18 22 23 25 25 24 25 24 25 26 27 26 32 40 43 46 45 42 41 42 44 45 45 41 37 36 34 32 31 32
26 26 29 30 28 29 34 26 28 22 20 19 15 16 19 14 16 19 21 22 19 20 23 25 27 26 27 28 29 35 40 44 42 38 34 33 36 39 40 37 35 32 31 31
13 16 17 22 32 35 40 40 39 43 32 28 27 24 21 23 19 20 20 21 24 25 30 30 31 28 23 29 27 27 32 34 35 34 32 30 34 36 38 38 35 31 30 31
11 15 21 25 30 30 39 49 47 47 45 42 39 38 31 27 27 26 26 23 27 27 24 24 23 26 25 24 26 27 27 29 33 34 32 30 29 29 30 31 29 29 25 25
24 17 17 21 26 26 30 39 51 50 47 47 50 48 45 38 35 34 32 31 26 28 28 25 29 25 25 19 15 19 22 23 24 27 27 25 25 25 26 28 27 27 28 29
30 26 26 24 24 22 21 23 38 38 32 38 49 53 56 51 46 41 38 37 36 35 37 31 31 32 31 30 24 20 19 21 23 25 26 24 26 27 27 29 32 32 33 34
30 23 19 19 23 20 8 10 18 31 36 38 43 54 60 58 53 51 46 44 44 44 43 39 38 37 36 29 28 21 25 23 23 24 26 30 30 31 33 34 35 36 36 36
29 27 23 21 14 15 9 9 14 22 31 37 40 40 47 55 58 58 56 57 53 49 48 44 42 44 42 40 34 27 29 28 27 29 30 30 32 33 33 34 34 35 35 34
25 28 28 24 23 16 10 7 5 7 11 15 20 24 27 33 41 50 53 56 61 58 55 52 46 43 38 41 40 30 27 33 37 29 32 34 32 32 33 33 32 32 31 30
22 25 27 27 28 23 21 14 10 6 4 9 10 12 14 15 23 25 26 28 37 43 46 50 44 34 34 32 36 48 48 33 32 35 34 32 31 29 29 29 28 28 27 26
22 23 23 26 24 25 22 21 20 18 13 13 16 19 14 16 16 23 23 26 29 29 32 33 34 36 36 42 53 42 41 41 35 30 27 30 28 29 27 25 23 23 24 25
18 22 26 27 26 24 18 19 20 18 16 14 10 14 21 19 19 20 27 28 31 30 36 30 36 27 24 31 35 38 33 36 36 31 33 41 30 26 23 21 21 22 23 23
14 18 20 24 27 30 28 22 19 17 17 18 15 13 12 19 15 10 12 18 11 26 32 33 35 33 30 27 25 26 31 20 24 21 18 17 16 18 16 15 15 14 15 15
10 13 14 15 17 18 19 25 27 22 19 17 10 8 11 14 11 15 14 11 9 16 11 15 24 25 28 30 27 20 17 16 15 13 12 15 14 13 14 17 18 20 21 21
13 13 17 18 13 15 19 20 16 13 17 20 16 12 7 7 8 6 7 8 8 8 6 5 9 9 14 21 18 11 5 2 1 3 6 12 9 11 12 13 13 15 17 19
15 10 13 14 15 17 19 19 16 13 12 13 11 10 13 11 10 9 8 7 6 4 3 3 2 2 2 3 1 3 5 8 6 7 10 13 13 15 14 13 12 14 17 19

GFSNGP_700_spd_045.txt.gz
Wind_Speed
30 28 30 27 24 22 26 33 34 35 43 44 33 30 31 35 35 34 45 47 45 36 37 31 36 32 25 24 23 24 25 28 30 30 30 29 28 28 28 27 25 23 24 23
33 26 28 18 16 21 21 31 34 35 41 39 33 33 33 34 25 23 40 43 40 36 31 31 36 32 26 26 24 25 20 22 25 26 27 28 27 26 26 26 26 24 23 22
13 13 14 12 9 6 23 20 31 43 38 34 33 30 31 28 14 18 28 35 40 37 33 32 35 32 27 26 23 19 17 14 14 18 21 22 22 24 24 23 23 24 23 22
14 9 6 17 16 24 23 16 24 30 32 28 29 25 22 18 19 19 26 29 32 33 29 29 33 33 28 31 21 18 18 18 17 16 16 16 18 19 20 21 20 21 22 22
7 12 12 13 8 11 22 17 11 17 24 19 20 14 14 21 21 24 25 22 21 28 31 33 34 37 28 31 25 23 19 18 18 18 20 22 23 22 21 22 22 22 22 23
7 6 3 8 11 21 27 18 20 19 23 29 24 22 19 21 22 24 24 25 29 33 35 36 32 39 32 28 28 25 23 22 17 15 15 16 14 17 23 29 30 29 29 29
18 8 3 10 21 31 7 8 15 20 25 23 25 26 27 26 27 25 26 27 31 36 36 38 35 38 38 33 30 27 24 28 24 20 17 16 17 19 19 22 24 27 31 33
4 4 4 7 16 16 18 15 12 18 25 26 27 27 28 28 29 30 30 29 29 31 33 36 37 39 41 41 37 35 32 31 30 26 22 21 20 22 23 22 23 24 24 25
4 1 11 18 27 28 21 15 15 14 22 26 24 23 27 30 30 31 32 31 30 28 27 29 30 32 36 38 39 38 34 28 31 30 26 26 25 23 26 27 26 25 24 25
3 6 11 9 17 21 22 14 13 12 14 17 24 24 24 28 31 30 32 32 30 28 27 27 28 29 29 30 33 34 34 36 38 37 35 34 32 31 28 34 26 29 29 29
5 5 4 6 11 11 26 17 10 10 9 10 15 20 20 23 27 27 31 34 34 32 28 27 27 28 30 32 34 35 35 36 37 36 36 37 37 33 30 30 31 29 29 29
17 14 6 5 17 16 18 26 13 10 7 5 8 12 18 18 21 23 23 26 26 29 28 27 25 24 25 27 31 35 34 32 34 35 36 36 37 37 37 36 34 37 33 31
17 15 9 1 8 16 25 27 25 13 11 7 7 7 12 13 15 22 22 24 24 23 25 25 23 23 24 25 22 24 29 34 40 41 38 40 40 41 41 42 42 36 35 34
19 12 5 6 3 9 18 25 32 35 25 19 20 18 14 13 14 14 21 24 23 27 26 26 28 28 23 26 30 31 28 27 28 33 42 48 50 48 44 38 36 35 35 36
26 19 12 14 10 8 17 25 30 36 39 32 26 30 27 20 17 18 18 19 22 23 26 27 26 25 25 27 28 31 31 29 26 29 33 37 37 37 37 36 34 35 36 34
31 23 20 11 9 14 11 25 35 37 40 43 38 33 35 33 26 23 23 23 21 20 20 21 22 22 25 23 26 24 24 25 25 26 28 31 36 36 35 34 30 28 29 28
32 33 30 28 25 22 23 12 17 28 33 37 50 47 43 39 35 33 33 33 30 29 27 24 26 26 24 25 27 23 23 18 18 21 21 23 25 31 26 28 25 28 29 28
29 29 29 28 28 26 21 20 10 11 13 22 28 39 47 47 46 44 46 40 39 38 35 34 32 34 37 31 26 23 21 25 27 22 18 16 16 19 23 25 25 27 29 31
26 26 28 28 28 25 19 16 14 10 13 15 19 25 31 33 37 43 47 52 51 48 46 44 41 39 34 32 31 27 26 28 28 25 25 25 24 23 27 29 30 31 32 32
24 25 27 26 23 23 20 17 15 13 7 10 16 18 21 22 25 31 40 47 59 59 59 54 51 49 44 37 32 25 27 30 32 32 37 32 33 36 29 31 33 34 32 31
21 24 27 27 26 23 21 16 12 10 8 5 5 5 6 10 11 11 19 25 31 41 48 51 48 50 52 48 44 42 41 39 38 39 36 32 32 30 29 33 36 34 32 31
21 24 25 28 28 23 20 22 20 13 6 4 8 10 10 10 12 11 11 12 17 24 26 30 31 29 35 39 43 46 36 37 37 35 37 39 42 35 33 32 31 29 29 29
18 21 24 27 27 27 29 25 18 16 15 9 2 4 10 14 14 16 16 16 18 17 21 18 23 21 26 26 32 34 30 34 40 37 37 40 31 34 40 33 31 30 28 29
20 19 21 24 25 26 29 30 26 20 13 12 14 10 4 2 8 15 18 9 10 17 18 18 24 29 27 27 21 16 18 28 35 39 35 40 41 34 43 30 28 30 28 25
20 20 20 23 23 23 26 27 26 24 21 16 11 10 14 13 10 10 5 5 9 11 9 13 24 24 20 25 29 32 34 32 29 28 29 27 24 19 20 20 21 19 19 21
18 19 20 18 18 20 20 20 21 20 22 21 16 13 9 5 5 8 11 11 8 1 12 17 19 10 23 26 25 30 27 24 22 23 25 22 15 11 13 12 13 15 12 13
19 20 19 16 11 14 18 21 20 15 17 17 17 17 19 18 15 9 4 6 10 9 9 9 5 6 7 7 7 12 12 11 8 7 9 12 7 6 6 6 6 10 16 20

GFSNGP_700_spd_048.txt.gz
Wind_Speed
29 31 27 27 22 18 17 23 17 23 34 27 28 29 24 24 25 32 30 27 33 35 37 35 36 36 35 33 29 30 30 30 28 29 29 30 30 30 30 30 28 26 26 25
25 23 24 31 25 17 15 19 26 26 25 20 35 33 29 27 27 34 35 33 37 40 39 36 33 35 33 29 30 30 32 30 27 25 27 28 28 29 29 28 27 25 25 25
7 9 12 17 26 14 13 14 20 35 34 32 24 21 23 27 25 34 31 47 51 51 46 40 28 28 29 30 28 29 21 21 22 23 25 26 26 27 27 27 27 26 24 24
9 2 4 9 15 15 16 12 21 33 29 26 31 31 28 26 23 27 29 32 44 45 46 39 27 31 32 31 27 27 21 20 18 18 21 23 24 24 24 25 25 25 24 22
5 2 2 13 16 20 19 10 15 28 29 22 25 25 26 24 22 18 20 21 30 45 41 32 33 35 36 31 29 29 23 19 19 17 17 19 20 19 19 19 19 19 19 20
5 2 6 11 11 23 23 11 14 22 26 24 22 22 20 17 14 13 24 30 36 41 42 34 31 35 38 34 31 29 23 18 20 20 20 20 18 18 18 19 19 20 20 20
15 3 7 10 17 29 13 11 14 21 26 31 26 22 15 13 13 12 24 28 30 33 33 35 34 32 40 35 32 28 25 24 22 18 16 14 13 12 14 17 20 23 26 27
9 5 5 4 20 21 20 20 16 22 24 26 29 24 20 17 15 16 18 20 28 32 32 36 33 29 38 35 33 30 29 27 24 21 20 20 18 19 21 23 23 23 24 25
2 4 5 13 25 27 25 22 18 19 24 26 27 29 27 24 21 19 18 18 19 21 25 30 34 32 37 38 35 34 32 30 28 26 25 26 25 25 24 23 25 24 25 23
5 1 9 13 17 25 26 23 19 18 20 25 27 28 30 28 26 23 22 23 23 22 22 24 27 30 30 41 41 40 39 35 33 31 29 30 30 29 24 22 22 29 25 21
8 7 4 4 15 23 24 23 21 17 18 20 24 24 24 28 28 27 26 26 26 25 22 21 20 21 23 26 30 31 32 34 34 33 32 32 32 31 29 26 28 25 25 24
11 12 8 4 12 23 20 19 22 19 16 16 21 22 21 22 26 28 29 27 26 26 26 25 24 24 23 23 24 25 27 29 31 34 36 36 35 35 34 33 30 28 28 31
20 8 3 3 6 17 20 22 22 23 20 14 15 17 19 20 19 20 23 26 27 26 28 30 29 30 30 30 30 30 31 31 32 33 33 35 37 37 36 35 35 34 33 35
21 12 8 5 2 8 16 24 25 25 24 23 16 9 13 19 17 17 18 19 21 23 24 25 26 26 28 29 30 30 28 25 24 27 32 36 40 41 41 40 40 40 39 38
28 23 18 10 7 8 9 15 21 26 32 32 23 16 13 14 16 16 16 19 19 20 21 21 23 25 27 29 26 25 28 31 26 23 25 27 29 31 35 42 46 46 46 41
28 24 19 20 15 9 13 14 16 24 29 31 48 32 22 18 20 20 20 19 17 19 19 18 17 19 21 22 23 23 24 25 24 23 22 24 24 25 27 30 33 35 35 34
27 28 29 25 23 21 7 6 9 10 10 21 32 50 39 38 28 28 23 24 25 22 19 16 17 17 18 21 23 22 21 20 20 16 18 16 16 18 20 24 27 30 32 32
28 28 28 26 25 23 20 5 5 7 8 4 14 25 38 52 55 45 38 36 32 30 30 27 23 20 19 19 21 21 21 23 22 24 21 11 9 9 10 12 14 19 25 27
25 27 28 25 25 26 22 19 5 6 7 9 13 18 24 33 45 51 53 54 55 44 39 40 37 34 28 24 22 23 25 26 24 21 19 14 12 14 17 18 19 21 22 23
22 23 26 28 27 22 22 20 18 14 12 10 9 5 11 17 23 31 46 53 51 55 51 50 43 42 44 36 33 31 31 28 26 26 27 23 19 20 23 25 26 28 29 29
20 22 24 24 25 26 22 21 18 17 17 14 9 11 14 9 10 12 19 29 39 53 60 63 56 48 53 47 41 41 41 37 33 32 32 30 25 20 27 28 26 27 27 29
19 20 22 24 23 21 21 18 17 14 13 12 10 4 9 10 9 9 13 18 22 25 30 40 52 59 53 54 51 44 46 49 47 41 38 34 28 30 28 30 29 26 28 29
18 19 20 23 23 21 22 21 18 16 13 10 8 5 5 8 13 19 17 14 16 19 20 18 18 30 43 48 45 44 38 37 36 38 32 27 34 35 34 36 38 31 31 30
19 19 20 20 21 23 23 22 21 20 17 15 13 9 8 8 6 8 11 14 8 4 6 15 18 13 13 18 21 18 22 26 26 26 30 36 43 38 38 33 37 37 38 38
18 19 19 18 19 21 22 23 21 20 19 16 16 17 10 11 12 13 7 11 10 8 3 11 10 8 12 15 25 22 24 21 22 27 37 36 45 44 44 48 42 38 38 35
17 18 17 18 17 18 20 22 19 19 20 15 15 14 16 16 14 13 13 14 9 2 4 2 8 13 17 23 25 26 26 27 29 32 32 33 33 31 34 34 31 28 31 32
16 17 17 17 16 16 16 18 14 15 19 16 15 17 18 17 15 16 14 13 10 10 10 9 5 4 12 8 9 12 13 15 15 16 15 13 14 16 20 24 24 18 14 17